Time,TemperatureF,DewpointF,PressureIn,WindDirection,WindDirectionDegrees,WindSpeedMPH,WindSpeedGustMPH,Humidity,HourlyPrecipIn,Conditions,Clouds,dailyrainin,SolarRadiationWatts/m^2,SoftwareType,DateUTC
2013-03-17 00:00:00,62.3,50.4,29.88,SSW,207,4.0,6.9,65,0.00,CLR,OVC,0.00,0.0,WeatherDisplay:10.37,2013-03-17 04:00:00,
2013-03-17 00:05:00,62.2,50.3,29.89,SSW,200,3.1,4.6,65,0.00,CLR,OVC,0.00,0.0,WeatherDisplay:10.37,2013-03-17 04:05:00,
2013-03-17 00:10:00,62.1,50.2,29.89,SSW,204,5.4,8.1,65,0.00,CLR,OVC,0.00,0.0,WeatherDisplay:10.37,2013-03-17 04:10:00,
2013-03-17 00:15:00,62.0,50.5,29.89,SW,234,2.1,5.8,66,0.00,CLR,OVC,0.00,0.0,WeatherDisplay:10.37,2013-03-17 04:15:00,
2013-03-17 00:20:00,61.8,50.7,29.89,SSW,205,2.5,4.6,67,0.00,CLR,OVC,0.00,0.0,WeatherDisplay:10.37,2013-03-17 04:20:00,
2013-03-17 00:25:00,61.6,50.5,29.89,SW,228,2.4,9.2,67,0.00,CLR,OVC,0.00,0.0,WeatherDisplay:10.37,2013-03-17 04:25:00,
2013-03-17 00:30:00,61.4,50.7,29.89,SW,215,4.5,6.9,68,0.00,CLR,OVC,0.00,0.0,WeatherDisplay:10.37,2013-03-17 04:30:00,
2013-03-17 00:35:00,61.1,50.5,29.89,SW,219,4.0,9.0,68,0.00,CLR,OVC,0.00,0.0,WeatherDisplay:10.37,2013-03-17 04:35:00,
2013-03-17 00:40:00,60.9,50.7,29.89,SSW,203,1.5,6.9,69,0.00,CLR,OVC,0.00,0.0,WeatherDisplay:10.37,2013-03-17 04:40:00,
2013-03-17 00:45:00,60.8,50.6,29.89,SSW,197,2.1,4.0,69,0.00,CLR,OVC,0.00,0.0,WeatherDisplay:10.37,2013-03-17 04:45:00,
2013-03-17 00:50:00,60.7,50.5,29.89,SSW,212,2.7,8.1,69,0.00,CLR,OVC,0.00,0.0,WeatherDisplay:10.37,2013-03-17 04:50:00,
2013-03-17 00:55:00,60.6,50.4,29.89,WSW,239,3.1,8.1,69,0.00,CLR,OVC,0.00,0.0,WeatherDisplay:10.37,2013-03-17 04:55:00,
2013-03-17 01:00:00,60.6,50.4,29.89,SSW,211,5.8,8.1,69,0.00,CLR,OVC,0.00,0.0,WeatherDisplay:10.37,2013-03-17 05:00:00,
2013-03-17 01:05:00,60.6,50.4,29.89,SW,236,4.6,9.2,69,0.00,CLR,OVC,0.00,0.0,WeatherDisplay:10.37,2013-03-17 05:05:00,
2013-03-17 01:10:00,60.5,50.3,29.89,SSW,211,5.2,8.1,69,0.00,CLR,OVC,0.00,0.0,WeatherDisplay:10.37,2013-03-17 05:10:00,
2013-03-17 01:15:00,60.5,50.3,29.89,South,183,3.1,5.8,69,0.00,CLR,OVC,0.00,0.0,WeatherDisplay:10.37,2013-03-17 05:15:00,
2013-03-17 01:20:00,60.5,50.3,29.90,WSW,254,1.6,8.1,69,0.00,CLR,OVC,0.00,0.0,WeatherDisplay:10.37,2013-03-17 05:20:00,
2013-03-17 01:25:00,60.6,50.4,29.90,SW,230,3.8,6.0,69,0.00,CLR,OVC,0.00,0.0,WeatherDisplay:10.37,2013-03-17 05:25:00,
2013-03-17 01:30:00,60.7,50.1,29.90,SSW,198,2.2,5.0,68,0.00,CLR,OVC,0.00,0.0,WeatherDisplay:10.37,2013-03-17 05:30:00,
2013-03-17 01:35:00,60.7,50.1,29.90,SW,231,2.3,4.6,68,0.00,CLR,OVC,0.00,0.0,WeatherDisplay:10.37,2013-03-17 05:35:00,
2013-03-17 01:40:00,60.7,49.7,29.90,WSW,250,4.0,6.0,67,0.00,CLR,OVC,0.00,0.0,WeatherDisplay:10.37,2013-03-17 05:40:00,
2013-03-17 01:45:00,60.8,49.8,29.90,SW,233,0.1,8.1,67,0.00,CLR,OVC,0.00,0.0,WeatherDisplay:10.37,2013-03-17 05:45:00,
2013-03-17 01:50:00,60.9,49.9,29.90,WSW,247,5.1,11.5,67,0.00,CLR,OVC,0.00,0.0,WeatherDisplay:10.37,2013-03-17 05:50:00,
2013-03-17 01:55:00,61.0,49.6,29.90,SW,225,3.6,9.0,66,0.00,CLR,OVC,0.00,0.0,WeatherDisplay:10.37,2013-03-17 05:55:00,
2013-03-17 02:00:00,61.1,49.7,29.90,SW,224,3.3,7.0,66,0.00,CLR,OVC,0.00,0.0,WeatherDisplay:10.37,2013-03-17 06:00:00,
2013-03-17 02:05:00,61.2,49.3,29.90,SSW,205,5.0,8.1,65,0.00,CLR,OVC,0.00,0.0,WeatherDisplay:10.37,2013-03-17 06:05:00,
2013-03-17 02:10:00,61.3,49.4,29.90,SW,229,5.8,8.1,65,0.00,CLR,OVC,0.00,0.0,WeatherDisplay:10.37,2013-03-17 06:10:00,
2013-03-17 02:15:00,61.3,49.0,29.90,SSW,207,7.3,8.0,64,0.00,CLR,OVC,0.00,0.0,WeatherDisplay:10.37,2013-03-17 06:15:00,
2013-03-17 02:20:00,61.6,48.9,29.90,SW,225,5.5,8.1,63,0.00,CLR,OVC,0.00,0.0,WeatherDisplay:10.37,2013-03-17 06:20:00,
2013-03-17 02:25:00,61.7,49.0,29.91,WSW,251,2.6,6.9,63,0.00,CLR,OVC,0.00,0.0,WeatherDisplay:10.37,2013-03-17 06:25:00,
2013-03-17 02:30:00,61.5,48.8,29.91,SW,231,3.5,8.1,63,0.00,CLR,OVC,0.00,0.0,WeatherDisplay:10.37,2013-03-17 06:30:00,
2013-03-17 02:35:00,61.5,48.8,29.91,WNW,292,4.1,8.1,63,0.00,CLR,OVC,0.00,0.0,WeatherDisplay:10.37,2013-03-17 06:35:00,
2013-03-17 02:40:00,61.5,48.8,29.91,SSW,203,5.9,9.2,63,0.00,CLR,OVC,0.00,0.0,WeatherDisplay:10.37,2013-03-17 06:40:00,
2013-03-17 02:45:00,61.5,48.8,29.91,WSW,254,2.3,3.5,63,0.00,CLR,OVC,0.00,0.0,WeatherDisplay:10.37,2013-03-17 06:45:00,
2013-03-17 02:50:00,61.4,48.7,29.91,WSW,244,2.5,4.6,63,0.00,CLR,OVC,0.00,0.0,WeatherDisplay:10.37,2013-03-17 06:50:00,
2013-03-17 02:55:00,61.5,48.4,29.91,SW,232,5.2,8.1,62,0.00,CLR,OVC,0.00,0.0,WeatherDisplay:10.37,2013-03-17 06:55:00,
2013-03-17 03:00:00,61.5,48.4,29.91,WSW,252,2.8,6.9,62,0.00,CLR,OVC,0.00,0.0,WeatherDisplay:10.37,2013-03-17 07:00:00,
2013-03-17 03:05:00,61.4,48.3,29.91,WSW,239,4.3,8.1,62,0.00,CLR,OVC,0.00,0.0,WeatherDisplay:10.37,2013-03-17 07:05:00,
2013-03-17 03:10:00,61.3,48.2,29.91,SW,225,3.0,9.2,62,0.00,CLR,OVC,0.00,0.0,WeatherDisplay:10.37,2013-03-17 07:10:00,
2013-03-17 03:16:00,61.3,48.6,29.91,SW,229,3.2,8.1,63,0.00,CLR,OVC,0.00,0.0,WeatherDisplay:10.37,2013-03-17 07:16:00,
2013-03-17 03:21:00,61.2,48.5,29.91,SW,236,3.0,4.6,63,0.00,CLR,OVC,0.00,0.0,WeatherDisplay:10.37,2013-03-17 07:21:00,
2013-03-17 03:26:00,61.0,48.3,29.91,WNW,284,4.0,6.9,63,0.00,CLR,OVC,0.00,0.0,WeatherDisplay:10.37,2013-03-17 07:26:00,
2013-03-17 03:31:00,60.8,48.1,29.91,West,267,3.0,5.8,63,0.00,CLR,OVC,0.00,0.0,WeatherDisplay:10.37,2013-03-17 07:31:00,
2013-03-17 03:36:00,60.7,48.0,29.91,SW,224,2.5,4.0,63,0.00,CLR,OVC,0.00,0.0,WeatherDisplay:10.37,2013-03-17 07:36:00,
2013-03-17 03:41:00,60.6,47.9,29.91,SSW,196,1.8,3.5,63,0.00,CLR,OVC,0.00,0.0,WeatherDisplay:10.37,2013-03-17 07:41:00,
2013-03-17 03:46:00,60.5,48.3,29.91,SW,230,0.5,3.5,64,0.00,CLR,OVC,0.00,0.0,WeatherDisplay:10.37,2013-03-17 07:46:00,
2013-03-17 03:51:00,60.3,48.1,29.91,West,274,2.4,5.8,64,0.00,CLR,OVC,0.00,0.0,WeatherDisplay:10.37,2013-03-17 07:51:00,
2013-03-17 03:56:00,60.2,48.0,29.91,WSW,253,1.1,4.0,64,0.00,CLR,OVC,0.00,0.0,WeatherDisplay:10.37,2013-03-17 07:56:00,
2013-03-17 04:01:00,60.1,47.9,29.91,WSW,248,2.4,6.0,64,0.00,CLR,OVC,0.00,0.0,WeatherDisplay:10.37,2013-03-17 08:01:00,
2013-03-17 04:06:00,60.0,47.8,29.91,WSW,249,0.8,3.5,64,0.00,CLR,OVC,0.00,0.0,WeatherDisplay:10.37,2013-03-17 08:06:00,
2013-03-17 04:11:00,59.8,48.0,29.91,WSW,241,0.0,1.1,65,0.00,CLR,OVC,0.00,0.0,WeatherDisplay:10.37,2013-03-17 08:11:00,
2013-03-17 04:16:00,59.6,47.8,29.91,WSW,255,1.0,3.0,65,0.00,CLR,OVC,0.00,0.0,WeatherDisplay:10.37,2013-03-17 08:16:00,
2013-03-17 04:21:00,59.4,47.6,29.91,SW,228,0.0,1.0,65,0.00,CLR,OVC,0.00,0.0,WeatherDisplay:10.37,2013-03-17 08:21:00,
2013-03-17 04:27:00,59.1,47.7,29.91,West,269,0.1,1.1,66,0.00,CLR,OVC,0.00,0.0,WeatherDisplay:10.37,2013-03-17 08:27:00,
2013-03-17 04:32:00,58.9,47.6,29.91,SW,221,0.8,3.5,66,0.00,CLR,OVC,0.00,0.0,WeatherDisplay:10.37,2013-03-17 08:32:00,
2013-03-17 04:37:00,58.8,47.9,29.91,WSW,248,0.0,0.0,67,0.00,CLR,OVC,0.00,0.0,WeatherDisplay:10.37,2013-03-17 08:37:00,
2013-03-17 04:42:00,58.6,47.7,29.91,SW,225,0.0,3.5,67,0.00,CLR,OVC,0.00,0.0,WeatherDisplay:10.37,2013-03-17 08:42:00,
2013-03-17 04:47:00,58.6,47.7,29.91,SW,236,1.1,4.6,67,0.00,CLR,OVC,0.00,0.0,WeatherDisplay:10.37,2013-03-17 08:47:00,
2013-03-17 04:52:00,58.5,47.6,29.91,SW,225,0.0,1.1,67,0.00,CLR,OVC,0.00,0.0,WeatherDisplay:10.37,2013-03-17 08:52:00,
2013-03-17 04:57:00,58.4,47.9,29.91,West,263,0.0,1.1,68,0.00,CLR,OVC,0.00,0.0,WeatherDisplay:10.37,2013-03-17 08:57:00,
2013-03-17 05:02:00,58.2,47.7,29.91,West,263,0.0,0.0,68,0.00,CLR,OVC,0.00,0.0,WeatherDisplay:10.37,2013-03-17 09:02:00,
2013-03-17 05:08:00,58.1,47.6,29.91,WSW,257,0.0,0.0,68,0.00,CLR,OVC,0.00,0.0,WeatherDisplay:10.37,2013-03-17 09:08:00,
2013-03-17 05:13:00,57.9,47.4,29.92,WSW,247,0.5,3.5,68,0.00,CLR,OVC,0.00,0.0,WeatherDisplay:10.37,2013-03-17 09:13:00,
2013-03-17 05:18:00,57.7,47.6,29.92,WSW,248,0.0,1.1,69,0.00,CLR,OVC,0.00,0.0,WeatherDisplay:10.37,2013-03-17 09:18:00,
2013-03-17 05:23:00,57.6,47.5,29.92,WSW,248,0.0,1.1,69,0.00,CLR,OVC,0.00,0.0,WeatherDisplay:10.37,2013-03-17 09:23:00,
2013-03-17 05:28:00,57.4,47.3,29.92,SW,230,0.1,1.1,69,0.00,CLR,OVC,0.00,0.0,WeatherDisplay:10.37,2013-03-17 09:28:00,
2013-03-17 05:33:00,57.2,47.5,29.92,WSW,254,0.1,1.1,70,0.00,CLR,OVC,0.00,0.0,WeatherDisplay:10.37,2013-03-17 09:33:00,
2013-03-17 05:38:00,57.1,47.4,29.92,WSW,255,0.9,3.5,70,0.00,CLR,OVC,0.00,0.0,WeatherDisplay:10.37,2013-03-17 09:38:00,
2013-03-17 05:43:00,57.1,47.4,29.93,WSW,246,0.5,3.5,70,0.00,CLR,OVC,0.00,0.0,WeatherDisplay:10.37,2013-03-17 09:43:00,
2013-03-17 05:48:00,57.1,47.4,29.93,SW,223,0.1,1.1,70,0.00,CLR,OVC,0.00,0.0,WeatherDisplay:10.37,2013-03-17 09:48:00,
2013-03-17 05:53:00,57.0,47.3,29.93,SW,228,0.2,1.1,70,0.00,CLR,OVC,0.00,0.0,WeatherDisplay:10.37,2013-03-17 09:53:00,
2013-03-17 05:58:00,57.0,47.3,29.93,WSW,240,0.4,3.0,70,0.00,CLR,OVC,0.00,0.0,WeatherDisplay:10.37,2013-03-17 09:58:00,
2013-03-17 06:03:00,57.0,47.3,29.93,WSW,246,0.0,2.3,70,0.00,CLR,OVC,0.00,0.0,WeatherDisplay:10.37,2013-03-17 10:03:00,
2013-03-17 06:08:00,56.9,47.2,29.93,SSW,213,0.3,3.5,70,0.00,CLR,OVC,0.00,0.0,WeatherDisplay:10.37,2013-03-17 10:08:00,
2013-03-17 06:13:00,56.8,47.1,29.94,SW,225,0.6,3.5,70,0.00,CLR,OVC,0.00,0.0,WeatherDisplay:10.37,2013-03-17 10:13:00,
2013-03-17 06:18:00,56.7,47.0,29.94,WSW,239,1.7,3.5,70,0.00,CLR,OVC,0.00,0.0,WeatherDisplay:10.37,2013-03-17 10:18:00,
2013-03-17 06:23:00,56.7,47.0,29.94,SW,230,0.3,5.8,70,0.00,CLR,OVC,0.00,0.0,WeatherDisplay:10.37,2013-03-17 10:23:00,
2013-03-17 06:28:00,56.8,47.1,29.94,WSW,248,0.0,2.3,70,0.00,CLR,OVC,0.00,0.0,WeatherDisplay:10.37,2013-03-17 10:28:00,
2013-03-17 06:33:00,56.8,47.1,29.94,WSW,240,0.1,1.0,70,0.00,CLR,OVC,0.00,0.0,WeatherDisplay:10.37,2013-03-17 10:33:00,
2013-03-17 06:38:00,56.7,47.0,29.95,SW,214,0.0,2.3,70,0.00,CLR,OVC,0.00,0.0,WeatherDisplay:10.37,2013-03-17 10:38:00,
2013-03-17 06:43:00,56.6,47.3,29.95,SW,236,0.0,0.0,71,0.00,CLR,OVC,0.00,0.0,WeatherDisplay:10.37,2013-03-17 10:43:00,
2013-03-17 06:48:00,56.4,47.1,29.95,SW,235,0.0,0.0,71,0.00,CLR,OVC,0.00,0.0,WeatherDisplay:10.37,2013-03-17 10:48:00,
2013-03-17 06:53:00,56.3,47.0,29.95,WSW,238,0.0,0.0,71,0.00,CLR,OVC,0.00,0.0,WeatherDisplay:10.37,2013-03-17 10:53:00,
2013-03-17 06:58:00,56.1,47.2,29.95,WSW,240,0.0,0.0,72,0.00,CLR,OVC,0.00,0.0,WeatherDisplay:10.37,2013-03-17 10:58:00,
2013-03-17 07:03:00,55.9,47.0,29.95,WSW,240,0.0,0.0,72,0.00,OVC,,0.00,0.0,WeatherDisplay:10.37,2013-03-17 11:03:00,
2013-03-17 07:08:00,55.7,47.2,29.96,SW,236,0.0,1.1,73,0.00,OVC,,0.00,0.0,WeatherDisplay:10.37,2013-03-17 11:08:00,
2013-03-17 07:13:00,55.4,46.9,29.96,WSW,239,0.1,1.1,73,0.00,OVC,,0.00,0.0,WeatherDisplay:10.37,2013-03-17 11:13:00,
2013-03-17 07:18:00,55.3,47.2,29.96,WSW,237,0.2,2.3,74,0.00,OVC,,0.00,0.0,WeatherDisplay:10.37,2013-03-17 11:18:00,
2013-03-17 07:23:00,55.2,47.1,29.96,SW,227,0.1,1.1,74,0.00,OVC,,0.00,0.0,WeatherDisplay:10.37,2013-03-17 11:23:00,
2013-03-17 07:29:00,55.1,47.0,29.96,SW,227,0.0,0.0,74,0.00,OVC,,0.00,0.0,WeatherDisplay:10.37,2013-03-17 11:29:00,
2013-03-17 07:34:00,55.1,47.3,29.96,SW,236,0.0,0.0,75,0.00,OVC,,0.00,0.0,WeatherDisplay:10.37,2013-03-17 11:34:00,
2013-03-17 07:39:00,55.1,47.3,29.96,SW,215,0.4,2.0,75,0.00,OVC,,0.00,0.0,WeatherDisplay:10.37,2013-03-17 11:39:00,
2013-03-17 07:44:00,55.1,47.3,29.96,SW,220,0.1,1.1,75,0.00,OVC,,0.00,0.0,WeatherDisplay:10.37,2013-03-17 11:44:00,
2013-03-17 07:49:00,55.3,47.5,29.97,SW,230,0.3,1.1,75,0.00,OVC,,0.00,0.0,WeatherDisplay:10.37,2013-03-17 11:49:00,
2013-03-17 07:54:00,55.7,47.9,29.97,SW,229,0.1,2.3,75,0.00,OVC,,0.00,0.0,WeatherDisplay:10.37,2013-03-17 11:54:00,
2013-03-17 07:59:00,56.2,48.0,29.97,SSW,194,0.5,3.5,74,0.00,OVC,,0.00,0.0,WeatherDisplay:10.37,2013-03-17 11:59:00,
2013-03-17 08:04:00,56.8,48.2,29.97,SW,227,1.4,3.5,73,0.00,OVC,,0.00,0.0,WeatherDisplay:10.37,2013-03-17 12:04:00,
2013-03-17 08:09:00,57.4,48.4,29.97,SSW,200,1.1,3.5,72,0.00,OVC,,0.00,0.0,WeatherDisplay:10.37,2013-03-17 12:09:00,
2013-03-17 08:14:00,58.0,48.6,29.97,SW,221,2.1,6.9,71,0.00,OVC,,0.00,0.0,WeatherDisplay:10.37,2013-03-17 12:14:00,
2013-03-17 08:19:00,58.6,49.2,29.97,SW,217,1.6,4.6,71,0.00,OVC,,0.00,0.0,WeatherDisplay:10.37,2013-03-17 12:19:00,
2013-03-17 08:24:00,59.1,49.3,29.97,SW,221,2.0,3.5,70,0.00,OVC,,0.00,0.0,WeatherDisplay:10.37,2013-03-17 12:24:00,
2013-03-17 08:29:00,59.6,49.4,29.98,SSW,204,0.6,3.5,69,0.00,OVC,,0.00,0.0,WeatherDisplay:10.37,2013-03-17 12:29:00,
2013-03-17 08:34:00,60.1,49.5,29.97,SW,232,0.5,3.5,68,0.00,OVC,,0.00,0.0,WeatherDisplay:10.37,2013-03-17 12:34:00,
2013-03-17 08:39:00,60.6,50.0,29.98,WSW,243,0.0,1.1,68,0.00,OVC,,0.00,0.0,WeatherDisplay:10.37,2013-03-17 12:39:00,
2013-03-17 08:44:00,61.2,50.2,29.98,South,184,2.8,5.8,67,0.00,OVC,,0.00,0.0,WeatherDisplay:10.37,2013-03-17 12:44:00,
2013-03-17 08:49:00,61.6,50.1,29.98,SW,217,1.9,6.0,66,0.00,OVC,,0.00,0.0,WeatherDisplay:10.37,2013-03-17 12:49:00,
2013-03-17 08:54:00,62.0,50.1,29.98,SSW,209,2.5,3.5,65,0.00,OVC,,0.00,0.0,WeatherDisplay:10.37,2013-03-17 12:54:00,
2013-03-17 08:59:00,62.7,50.3,29.97,SW,215,1.5,3.5,64,0.00,OVC,,0.00,0.0,WeatherDisplay:10.37,2013-03-17 12:59:00,
2013-03-17 09:04:00,63.2,50.4,29.98,WSW,248,2.8,3.5,63,0.00,OVC,,0.00,0.0,WeatherDisplay:10.37,2013-03-17 13:04:00,
2013-03-17 09:09:00,63.7,50.4,29.98,SW,217,4.1,5.8,62,0.00,OVC,,0.00,0.0,WeatherDisplay:10.37,2013-03-17 13:09:00,
2013-03-17 09:14:00,64.0,50.7,29.98,WSW,257,3.1,7.0,62,0.00,OVC,,0.00,0.0,WeatherDisplay:10.37,2013-03-17 13:14:00,
2013-03-17 09:19:00,64.6,50.8,29.98,SW,223,2.4,4.6,61,0.00,OVC,,0.00,0.0,WeatherDisplay:10.37,2013-03-17 13:19:00,
2013-03-17 09:24:00,65.3,50.6,29.98,WSW,240,3.0,4.6,59,0.00,OVC,,0.00,0.0,WeatherDisplay:10.37,2013-03-17 13:24:00,
2013-03-17 09:29:00,65.8,50.6,29.98,SW,221,3.3,5.8,58,0.00,OVC,,0.00,0.0,WeatherDisplay:10.37,2013-03-17 13:29:00,
2013-03-17 09:34:00,66.1,50.9,29.98,SW,217,2.1,3.5,58,0.00,OVC,,0.00,0.0,WeatherDisplay:10.37,2013-03-17 13:34:00,
2013-03-17 09:39:00,66.4,51.2,29.98,SSW,197,2.2,9.2,58,0.00,OVC,,0.00,0.0,WeatherDisplay:10.37,2013-03-17 13:39:00,
2013-03-17 09:44:00,66.5,51.3,29.98,WSW,239,2.7,3.5,58,0.00,OVC,,0.00,0.0,WeatherDisplay:10.37,2013-03-17 13:44:00,
2013-03-17 09:49:00,66.8,50.6,29.98,WSW,244,7.2,8.1,56,0.00,OVC,,0.00,0.0,WeatherDisplay:10.37,2013-03-17 13:49:00,
2013-03-17 09:54:00,66.9,50.7,29.98,SW,227,6.2,8.1,56,0.00,OVC,,0.00,0.0,WeatherDisplay:10.37,2013-03-17 13:54:00,
2013-03-17 09:59:00,67.1,51.4,29.98,NW,304,3.0,6.9,57,0.00,OVC,,0.00,0.0,WeatherDisplay:10.37,2013-03-17 13:59:00,
2013-03-17 10:04:00,67.8,51.0,29.99,WSW,248,3.5,6.9,55,0.00,OVC,,0.00,0.0,WeatherDisplay:10.37,2013-03-17 14:04:00,
2013-03-17 10:09:00,68.2,51.4,29.99,West,263,3.8,5.8,55,0.00,OVC,,0.00,0.0,WeatherDisplay:10.37,2013-03-17 14:09:00,
2013-03-17 10:14:00,68.6,51.3,29.99,WNW,300,3.7,6.9,54,0.00,OVC,,0.00,0.0,WeatherDisplay:10.37,2013-03-17 14:14:00,
2013-03-17 10:19:00,69.0,51.7,29.99,WNW,302,3.0,4.6,54,0.00,OVC,,0.00,0.0,WeatherDisplay:10.37,2013-03-17 14:19:00,
2013-03-17 10:24:00,69.4,52.0,29.99,NW,311,2.6,5.8,54,0.00,OVC,,0.00,0.0,WeatherDisplay:10.37,2013-03-17 14:24:00,
2013-03-17 10:29:00,70.0,51.6,29.99,WSW,242,4.2,11.5,52,0.00,OVC,,0.00,0.0,WeatherDisplay:10.37,2013-03-17 14:29:00,
2013-03-17 10:34:00,70.6,52.1,29.99,ENE,69,0.7,3.5,52,0.00,OVC,,0.00,0.0,WeatherDisplay:10.37,2013-03-17 14:34:00,
2013-03-17 10:39:00,71.3,51.7,29.98,SW,220,3.1,5.0,50,0.00,OVC,,0.00,0.0,WeatherDisplay:10.37,2013-03-17 14:39:00,
2013-03-17 10:44:00,71.7,51.5,29.99,SW,222,3.4,9.2,49,0.00,OVC,,0.00,0.0,WeatherDisplay:10.37,2013-03-17 14:44:00,
2013-03-17 10:49:00,71.8,52.2,29.99,SW,215,3.3,3.5,50,0.00,OVC,,0.00,0.0,WeatherDisplay:10.37,2013-03-17 14:49:00,
2013-03-17 10:54:00,72.0,51.2,29.98,West,259,4.8,10.4,48,0.00,OVC,,0.00,0.0,WeatherDisplay:10.37,2013-03-17 14:54:00,
2013-03-17 10:59:00,72.0,51.8,29.98,SW,221,2.5,4.6,49,0.00,OVC,,0.00,0.0,WeatherDisplay:10.37,2013-03-17 14:59:00,
2013-03-17 11:04:00,72.1,51.9,29.98,NNW,334,2.0,8.1,49,0.00,OVC,,0.00,0.0,WeatherDisplay:10.37,2013-03-17 15:04:00,
2013-03-17 11:09:00,72.2,50.8,29.98,West,280,5.7,5.7,47,0.00,OVC,,0.00,0.0,WeatherDisplay:10.37,2013-03-17 15:09:00,
2013-03-17 11:14:00,72.4,51.0,29.99,WNW,292,1.0,4.6,47,0.00,OVC,,0.00,0.0,WeatherDisplay:10.37,2013-03-17 15:14:00,
2013-03-17 11:19:00,72.9,51.5,29.98,WNW,296,3.9,5.8,47,0.00,OVC,,0.00,0.0,WeatherDisplay:10.37,2013-03-17 15:19:00,
2013-03-17 11:24:00,73.2,51.2,29.98,NW,323,3.0,4.6,46,0.00,OVC,,0.00,0.0,WeatherDisplay:10.37,2013-03-17 15:24:00,
2013-03-17 11:29:00,73.4,51.4,29.99,NNW,333,2.8,4.6,46,0.00,OVC,,0.00,0.0,WeatherDisplay:10.37,2013-03-17 15:29:00,
2013-03-17 11:34:00,73.6,50.9,29.99,North,10,3.2,4.6,45,0.00,OVC,,0.00,0.0,WeatherDisplay:10.37,2013-03-17 15:34:00,
2013-03-17 11:39:00,73.4,51.4,29.98,West,270,2.3,8.1,46,0.00,OVC,,0.00,0.0,WeatherDisplay:10.37,2013-03-17 15:39:00,
2013-03-17 11:44:00,73.8,51.7,29.99,NW,309,0.5,2.3,46,0.00,OVC,,0.00,0.0,WeatherDisplay:10.37,2013-03-17 15:44:00,
2013-03-17 11:49:00,74.2,51.5,29.99,SE,138,3.7,4.6,45,0.00,OVC,,0.00,0.0,WeatherDisplay:10.37,2013-03-17 15:49:00,
2013-03-17 11:54:00,74.2,51.5,29.99,West,261,2.1,3.5,45,0.00,OVC,,0.00,0.0,WeatherDisplay:10.37,2013-03-17 15:54:00,
2013-03-17 11:59:00,74.7,51.9,29.99,East,89,6.8,10.0,45,0.00,OVC,,0.00,0.0,WeatherDisplay:10.37,2013-03-17 15:59:00,
2013-03-17 12:04:00,71.9,52.2,29.99,ESE,120,5.6,10.0,50,0.00,OVC,,0.00,0.0,WeatherDisplay:10.37,2013-03-17 16:04:00,
2013-03-17 12:09:00,70.5,52.0,29.99,ENE,68,4.2,6.9,52,0.00,OVC,,0.00,0.0,WeatherDisplay:10.37,2013-03-17 16:09:00,
2013-03-17 12:14:00,69.5,51.1,30.00,ESE,122,7.3,10.0,52,0.00,OVC,,0.00,0.0,WeatherDisplay:10.37,2013-03-17 16:14:00,
2013-03-17 12:19:00,69.0,51.7,30.00,ESE,121,3.0,4.0,54,0.00,OVC,,0.00,0.0,WeatherDisplay:10.37,2013-03-17 16:19:00,
2013-03-17 12:24:00,69.5,52.1,30.00,ESE,105,5.3,8.1,54,0.00,OVC,,0.00,0.0,WeatherDisplay:10.37,2013-03-17 16:24:00,
2013-03-17 12:30:00,68.9,52.1,30.00,NE,34,8.3,11.5,55,0.00,OVC,,0.00,0.0,WeatherDisplay:10.37,2013-03-17 16:30:00,
2013-03-17 12:35:00,67.9,52.1,30.00,ENE,73,6.8,9.2,57,0.00,OVC,,0.00,0.0,WeatherDisplay:10.37,2013-03-17 16:35:00,
2013-03-17 12:40:00,67.0,52.7,30.00,ENE,69,7.2,10.4,60,0.00,OVC,,0.00,0.0,WeatherDisplay:10.37,2013-03-17 16:40:00,
2013-03-17 12:45:00,65.6,53.1,30.00,ENE,75,5.7,10.4,64,0.00,OVC,,0.00,0.0,WeatherDisplay:10.37,2013-03-17 16:45:00,
2013-03-17 12:50:00,64.9,52.8,30.00,East,92,7.9,10.4,65,0.00,OVC,,0.00,0.0,WeatherDisplay:10.37,2013-03-17 16:50:00,
2013-03-17 12:55:00,64.7,53.5,29.99,ESE,111,4.7,6.0,67,0.00,OVC,,0.00,0.0,WeatherDisplay:10.37,2013-03-17 16:55:00,
2013-03-17 13:00:00,64.8,53.6,29.99,NE,44,6.0,8.1,67,0.00,OVC,,0.00,0.0,WeatherDisplay:10.37,2013-03-17 17:00:00,
2013-03-17 13:05:00,64.4,54.0,29.99,ESE,103,4.2,6.9,69,0.00,OVC,,0.00,0.0,WeatherDisplay:10.37,2013-03-17 17:05:00,
2013-03-17 13:10:00,64.0,52.8,29.99,East,82,10.5,13.0,67,0.00,OVC,,0.00,0.0,WeatherDisplay:10.37,2013-03-17 17:10:00,
2013-03-17 13:15:00,62.7,53.2,29.99,East,85,6.3,9.2,71,0.00,OVC,,0.00,0.0,WeatherDisplay:10.37,2013-03-17 17:15:00,
2013-03-17 13:20:00,62.5,53.0,29.99,ENE,59,8.1,10.4,71,0.00,OVC,,0.00,0.0,WeatherDisplay:10.37,2013-03-17 17:20:00,
2013-03-17 13:25:00,62.4,53.3,29.99,East,92,8.0,13.8,72,0.00,OVC,,0.00,0.0,WeatherDisplay:10.37,2013-03-17 17:25:00,
2013-03-17 13:30:00,61.8,52.7,29.99,ESE,113,8.0,10.4,72,0.00,OVC,,0.00,0.0,WeatherDisplay:10.37,2013-03-17 17:30:00,
2013-03-17 13:35:00,61.9,53.5,29.98,ENE,74,4.7,8.1,74,0.00,OVC,,0.00,0.0,WeatherDisplay:10.37,2013-03-17 17:35:00,
2013-03-17 13:40:00,62.2,53.8,29.99,ESE,102,5.5,6.9,74,0.00,OVC,,0.00,0.0,WeatherDisplay:10.37,2013-03-17 17:40:00,
2013-03-17 13:45:00,62.2,53.4,29.99,East,97,6.7,11.5,73,0.00,OVC,,0.00,0.0,WeatherDisplay:10.37,2013-03-17 17:45:00,
2013-03-17 13:50:00,61.7,53.3,29.99,ENE,76,6.5,13.8,74,0.00,OVC,,0.00,0.0,WeatherDisplay:10.37,2013-03-17 17:50:00,
2013-03-17 13:55:00,61.0,53.0,29.99,ENE,57,11.4,15.0,75,0.00,OVC,,0.00,0.0,WeatherDisplay:10.37,2013-03-17 17:55:00,
2013-03-17 14:00:00,60.5,52.9,29.99,ENE,71,10.0,15.0,76,0.00,OVC,,0.00,0.0,WeatherDisplay:10.37,2013-03-17 18:00:00,
2013-03-17 14:05:00,60.4,52.8,29.99,NE,41,8.9,16.1,76,0.00,OVC,,0.00,0.0,WeatherDisplay:10.37,2013-03-17 18:05:00,
2013-03-17 14:10:00,60.6,52.6,29.99,NE,49,8.7,18.4,75,0.00,OVC,,0.00,0.0,WeatherDisplay:10.37,2013-03-17 18:10:00,
2013-03-17 14:15:00,61.1,52.7,29.99,NNE,32,7.0,12.7,74,0.00,OVC,,0.00,0.0,WeatherDisplay:10.37,2013-03-17 18:15:00,
2013-03-17 14:20:00,60.8,52.5,29.99,NE,50,7.3,12.7,74,0.00,OVC,,0.00,0.0,WeatherDisplay:10.37,2013-03-17 18:20:00,
2013-03-17 14:25:00,61.0,52.7,29.98,ENE,71,5.0,11.5,74,0.00,OVC,,0.00,0.0,WeatherDisplay:10.37,2013-03-17 18:25:00,
2013-03-17 14:30:00,61.4,52.7,29.98,ENE,78,7.5,16.1,73,0.00,OVC,,0.00,0.0,WeatherDisplay:10.37,2013-03-17 18:30:00,
2013-03-17 14:35:00,61.7,52.2,29.98,NNE,25,7.0,9.2,71,0.00,OVC,,0.00,0.0,WeatherDisplay:10.37,2013-03-17 18:35:00,
2013-03-17 14:40:00,61.2,52.1,29.98,ENE,77,10.3,12.7,72,0.00,OVC,,0.00,0.0,WeatherDisplay:10.37,2013-03-17 18:40:00,
2013-03-17 14:45:00,61.2,52.5,29.98,ENE,62,8.0,11.5,73,0.00,OVC,,0.00,0.0,WeatherDisplay:10.37,2013-03-17 18:45:00,
2013-03-17 14:50:00,61.7,52.6,29.98,ENE,68,6.1,8.0,72,0.00,OVC,,0.00,0.0,WeatherDisplay:10.37,2013-03-17 18:50:00,
2013-03-17 14:55:00,61.8,52.3,29.98,NE,56,7.2,10.4,71,0.00,OVC,,0.00,0.0,WeatherDisplay:10.37,2013-03-17 18:55:00,
2013-03-17 15:00:00,62.1,52.2,29.98,ESE,112,8.4,11.5,70,0.00,OVC,,0.00,0.0,WeatherDisplay:10.37,2013-03-17 19:00:00,
2013-03-17 15:05:00,61.8,52.3,29.98,ENE,74,10.8,15.0,71,0.00,OVC,,0.00,0.0,WeatherDisplay:10.37,2013-03-17 19:05:00,
2013-03-17 15:10:00,62.0,52.9,29.98,East,98,8.7,12.7,72,0.00,OVC,,0.00,0.0,WeatherDisplay:10.37,2013-03-17 19:10:00,
2013-03-17 15:15:00,61.1,52.4,29.98,ENE,66,9.8,11.5,73,0.00,OVC,,0.00,0.0,WeatherDisplay:10.37,2013-03-17 19:15:00,
2013-03-17 15:20:00,61.1,53.1,29.99,ENE,77,4.8,9.2,75,0.00,OVC,,0.00,0.0,WeatherDisplay:10.37,2013-03-17 19:20:00,
2013-03-17 15:25:00,61.4,53.0,29.99,East,101,5.1,13.8,74,0.00,OVC,,0.00,0.0,WeatherDisplay:10.37,2013-03-17 19:25:00,
2013-03-17 15:30:00,60.3,52.3,29.99,SE,128,7.0,12.7,75,0.00,OVC,,0.00,0.0,WeatherDisplay:10.37,2013-03-17 19:30:00,
2013-03-17 15:35:00,59.8,52.9,29.99,ENE,76,5.8,10.0,78,0.00,OVC,,0.00,0.0,WeatherDisplay:10.37,2013-03-17 19:35:00,
2013-03-17 15:40:00,59.7,52.8,29.99,ESE,109,9.8,12.7,78,0.00,OVC,,0.00,0.0,WeatherDisplay:10.37,2013-03-17 19:40:00,
2013-03-17 15:45:00,59.5,53.0,29.99,ESE,109,3.9,11.5,79,0.00,OVC,,0.00,0.0,WeatherDisplay:10.37,2013-03-17 19:45:00,
2013-03-17 15:50:00,59.9,53.7,29.99,NE,47,7.9,15.0,80,0.00,OVC,,0.00,0.0,WeatherDisplay:10.37,2013-03-17 19:50:00,
2013-03-17 15:55:00,59.9,53.7,29.98,NE,50,10.9,15.0,80,0.00,OVC,,0.00,0.0,WeatherDisplay:10.37,2013-03-17 19:55:00,
2013-03-17 16:00:00,59.6,53.4,29.98,NE,55,8.2,15.0,80,0.00,OVC,,0.00,0.0,WeatherDisplay:10.37,2013-03-17 20:00:00,
2013-03-17 16:05:00,59.2,53.4,29.98,NE,38,10.0,16.1,81,0.00,OVC,,0.00,0.0,WeatherDisplay:10.37,2013-03-17 20:05:00,
2013-03-17 16:10:00,58.7,53.2,29.99,East,88,4.2,13.8,82,0.00,OVC,,0.00,0.0,WeatherDisplay:10.37,2013-03-17 20:10:00,
2013-03-17 16:15:00,58.6,53.1,29.99,NE,37,9.7,12.7,82,0.00,OVC,,0.00,0.0,WeatherDisplay:10.37,2013-03-17 20:15:00,
2013-03-17 16:20:00,58.3,52.8,29.99,NE,46,4.9,11.5,82,0.00,OVC,,0.00,0.0,WeatherDisplay:10.37,2013-03-17 20:20:00,
2013-03-17 16:25:00,57.8,52.3,29.99,NE,56,10.3,17.3,82,0.00,OVC,,0.00,0.0,WeatherDisplay:10.37,2013-03-17 20:25:00,
2013-03-17 16:30:00,57.1,52.0,30.00,East,83,7.2,11.5,83,0.00,OVC,,0.00,0.0,WeatherDisplay:10.37,2013-03-17 20:30:00,
2013-03-17 16:35:00,56.7,51.9,30.00,NE,40,5.8,12.7,84,0.00,OVC,,0.00,0.0,WeatherDisplay:10.37,2013-03-17 20:35:00,
2013-03-17 16:40:00,56.5,52.0,30.00,North,9,6.3,9.0,85,0.00,OVC,,0.00,0.0,WeatherDisplay:10.37,2013-03-17 20:40:00,
2013-03-17 16:45:00,56.2,51.7,30.00,NE,35,4.5,9.2,85,0.00,OVC,,0.00,0.0,WeatherDisplay:10.37,2013-03-17 20:45:00,
2013-03-17 16:50:00,55.8,51.7,30.01,East,82,5.2,9.2,86,0.00,OVC,,0.00,0.0,WeatherDisplay:10.37,2013-03-17 20:50:00,
2013-03-17 16:55:00,55.6,51.5,30.01,ENE,65,5.8,9.2,86,0.00,OVC,,0.00,0.0,WeatherDisplay:10.37,2013-03-17 20:55:00,
2013-03-17 17:00:00,55.8,51.7,30.01,East,96,2.9,8.1,86,0.00,OVC,,0.00,0.0,WeatherDisplay:10.37,2013-03-17 21:00:00,
2013-03-17 17:05:00,55.9,51.8,30.01,NE,41,8.9,13.8,86,0.00,OVC,,0.00,0.0,WeatherDisplay:10.37,2013-03-17 21:05:00,
2013-03-17 17:10:00,55.7,51.6,30.01,ENE,73,7.4,12.7,86,0.00,OVC,,0.00,0.0,WeatherDisplay:10.37,2013-03-17 21:10:00,
2013-03-17 17:15:00,55.7,51.6,30.01,ENE,67,10.1,17.3,86,0.00,OVC,,0.00,0.0,WeatherDisplay:10.37,2013-03-17 21:15:00,
2013-03-17 17:20:00,55.6,51.5,30.01,ESE,109,8.7,13.8,86,0.00,OVC,,0.00,0.0,WeatherDisplay:10.37,2013-03-17 21:20:00,
2013-03-17 17:25:00,55.7,51.6,30.02,ENE,70,8.5,17.3,86,0.00,OVC,,0.00,0.0,WeatherDisplay:10.37,2013-03-17 21:25:00,
2013-03-17 17:30:00,55.5,51.4,30.01,ENE,58,8.8,13.8,86,0.00,OVC,,0.00,0.0,WeatherDisplay:10.37,2013-03-17 21:30:00,
2013-03-17 17:35:00,55.4,51.3,30.01,East,98,6.6,11.5,86,0.00,OVC,,0.00,0.0,WeatherDisplay:10.37,2013-03-17 21:35:00,
2013-03-17 17:40:00,55.3,51.2,30.02,ESE,110,1.8,11.5,86,0.00,OVC,,0.00,0.0,WeatherDisplay:10.37,2013-03-17 21:40:00,
2013-03-17 17:46:00,55.3,51.2,30.02,ESE,109,8.2,16.1,86,0.00,OVC,,0.00,0.0,WeatherDisplay:10.37,2013-03-17 21:46:00,
2013-03-17 17:51:00,55.1,51.0,30.02,NE,50,9.8,16.1,86,0.00,OVC,,0.00,0.0,WeatherDisplay:10.37,2013-03-17 21:51:00,
2013-03-17 17:56:00,54.8,50.7,30.02,ENE,63,5.9,17.3,86,0.00,OVC,,0.00,0.0,WeatherDisplay:10.37,2013-03-17 21:56:00,
2013-03-17 18:01:00,54.8,51.0,30.02,ENE,59,4.6,6.9,87,0.00,OVC,,0.00,0.0,WeatherDisplay:10.37,2013-03-17 22:01:00,
2013-03-17 18:06:00,54.6,50.5,30.02,ENE,72,6.9,11.5,86,0.00,OVC,,0.00,0.0,WeatherDisplay:10.37,2013-03-17 22:06:00,
2013-03-17 18:11:00,54.5,50.1,30.02,ENE,78,5.5,9.2,85,0.00,OVC,,0.00,0.0,WeatherDisplay:10.37,2013-03-17 22:11:00,
2013-03-17 18:16:00,54.4,50.0,30.03,ENE,78,9.0,15.0,85,0.00,OVC,,0.00,0.0,WeatherDisplay:10.37,2013-03-17 22:16:00,
2013-03-17 18:21:00,54.1,49.7,30.03,NE,55,10.6,13.8,85,0.00,OVC,,0.00,0.0,WeatherDisplay:10.37,2013-03-17 22:21:00,
2013-03-17 18:26:00,54.0,49.9,30.03,NE,51,6.7,12.7,86,0.00,OVC,,0.00,0.0,WeatherDisplay:10.37,2013-03-17 22:26:00,
2013-03-17 18:31:00,54.0,49.9,30.03,ENE,69,6.6,15.0,86,0.00,OVC,,0.00,0.0,WeatherDisplay:10.37,2013-03-17 22:31:00,
2013-03-17 18:36:00,54.0,49.9,30.04,NE,42,5.7,8.0,86,0.00,OVC,,0.00,0.0,WeatherDisplay:10.37,2013-03-17 22:36:00,
2013-03-17 18:41:00,53.9,49.8,30.04,ESE,102,5.5,11.5,86,0.00,OVC,,0.00,0.0,WeatherDisplay:10.37,2013-03-17 22:41:00,
2013-03-17 18:46:00,53.8,49.7,30.05,East,92,8.4,12.7,86,0.00,OVC,,0.00,0.0,WeatherDisplay:10.37,2013-03-17 22:46:00,
2013-03-17 18:51:00,53.8,49.7,30.04,ENE,57,1.9,10.4,86,0.00,OVC,,0.00,0.0,WeatherDisplay:10.37,2013-03-17 22:51:00,
2013-03-17 18:56:00,53.7,49.6,30.04,NE,49,9.6,13.8,86,0.00,OVC,,0.00,0.0,WeatherDisplay:10.37,2013-03-17 22:56:00,
2013-03-17 19:02:00,53.5,49.7,30.04,NE,51,10.4,16.1,87,0.00,OVC,,0.00,0.0,WeatherDisplay:10.37,2013-03-17 23:02:00,
2013-03-17 19:07:00,53.3,49.5,30.05,ENE,61,11.5,18.4,87,0.00,OVC,,0.00,0.0,WeatherDisplay:10.37,2013-03-17 23:07:00,
2013-03-17 19:12:00,53.1,49.0,30.05,ENE,78,9.5,11.5,86,0.00,OVC,,0.00,0.0,WeatherDisplay:10.37,2013-03-17 23:12:00,
2013-03-17 19:17:00,52.9,48.8,30.05,ENE,61,7.9,15.0,86,0.00,OVC,,0.00,0.0,WeatherDisplay:10.37,2013-03-17 23:17:00,
2013-03-17 19:22:00,52.8,48.7,30.05,ENE,67,10.3,15.0,86,0.00,OVC,,0.00,0.0,WeatherDisplay:10.37,2013-03-17 23:22:00,
2013-03-17 19:27:00,52.5,48.7,30.05,ENE,67,12.1,16.1,87,0.00,OVC,,0.00,0.0,WeatherDisplay:10.37,2013-03-17 23:27:00,
2013-03-17 19:32:00,52.4,48.3,30.06,NNE,32,6.4,13.8,86,0.00,OVC,,0.00,0.0,WeatherDisplay:10.37,2013-03-17 23:32:00,
2013-03-17 19:37:00,52.3,48.2,30.06,NE,46,6.1,10.4,86,0.00,OVC,,0.00,0.0,WeatherDisplay:10.37,2013-03-17 23:37:00,
2013-03-17 19:42:00,52.3,48.2,30.06,NE,41,6.9,10.4,86,0.00,OVC,,0.00,0.0,WeatherDisplay:10.37,2013-03-17 23:42:00,
2013-03-17 19:47:00,52.2,48.1,30.05,East,80,9.1,14.0,86,0.00,OVC,,0.00,0.0,WeatherDisplay:10.37,2013-03-17 23:47:00,
2013-03-17 19:52:00,52.1,48.0,30.06,East,88,12.2,23.0,86,0.00,OVC,,0.00,0.0,WeatherDisplay:10.37,2013-03-17 23:52:00,
2013-03-17 19:57:00,52.0,47.9,30.06,ENE,76,9.0,16.1,86,0.00,CLR,OVC,0.00,0.0,WeatherDisplay:10.37,2013-03-17 23:57:00,
2013-03-17 20:03:00,52.0,47.9,30.06,NE,52,4.4,6.9,86,0.00,CLR,OVC,0.00,0.0,WeatherDisplay:10.37,2013-03-18 00:03:00,
2013-03-17 20:08:00,52.0,47.9,30.06,ENE,65,13.8,26.5,86,0.00,CLR,OVC,0.00,0.0,WeatherDisplay:10.37,2013-03-18 00:08:00,
2013-03-17 20:13:00,51.8,47.7,30.07,East,80,10.0,15.0,86,0.00,CLR,OVC,0.00,0.0,WeatherDisplay:10.37,2013-03-18 00:13:00,
2013-03-17 20:18:00,51.8,47.7,30.07,NE,55,12.0,20.0,86,0.00,CLR,OVC,0.00,0.0,WeatherDisplay:10.37,2013-03-18 00:18:00,
2013-03-17 20:23:00,51.7,47.6,30.07,East,88,11.0,16.1,86,0.00,CLR,OVC,0.00,0.0,WeatherDisplay:10.37,2013-03-18 00:23:00,
2013-03-17 20:28:00,51.7,47.6,30.07,East,90,9.4,15.0,86,0.00,CLR,OVC,0.00,0.0,WeatherDisplay:10.37,2013-03-18 00:28:00,
2013-03-17 20:33:00,51.6,47.5,30.07,NE,42,10.8,21.9,86,0.00,CLR,OVC,0.00,0.0,WeatherDisplay:10.37,2013-03-18 00:33:00,
2013-03-17 20:38:00,51.6,47.9,30.08,NE,41,8.9,16.1,87,0.00,CLR,OVC,0.00,0.0,WeatherDisplay:10.37,2013-03-18 00:38:00,
2013-03-17 20:43:00,51.5,47.5,30.08,ENE,76,9.2,16.0,86,0.00,CLR,OVC,0.00,0.0,WeatherDisplay:10.37,2013-03-18 00:43:00,
2013-03-17 20:48:00,51.4,47.4,30.08,North,355,6.4,16.1,86,0.00,CLR,OVC,0.00,0.0,WeatherDisplay:10.37,2013-03-18 00:48:00,
2013-03-17 20:53:00,51.3,47.6,30.09,NE,53,9.9,17.3,87,0.00,CLR,OVC,0.00,0.0,WeatherDisplay:10.37,2013-03-18 00:53:00,
2013-03-17 20:58:00,51.3,47.6,30.09,ENE,71,10.6,15.0,87,0.00,CLR,OVC,0.00,0.0,WeatherDisplay:10.37,2013-03-18 00:58:00,
2013-03-17 21:03:00,51.2,47.5,30.09,ENE,74,9.9,14.0,87,0.00,CLR,OVC,0.00,0.0,WeatherDisplay:10.37,2013-03-18 01:03:00,
2013-03-17 21:08:00,51.2,47.2,30.09,ENE,61,7.0,15.0,86,0.00,CLR,OVC,0.00,0.0,WeatherDisplay:10.37,2013-03-18 01:08:00,
2013-03-17 21:13:00,51.0,47.0,30.08,NE,44,13.2,18.4,86,0.00,CLR,OVC,0.00,0.0,WeatherDisplay:10.37,2013-03-18 01:13:00,
2013-03-17 21:18:00,50.9,46.9,30.09,East,88,9.2,11.5,86,0.00,CLR,OVC,0.00,0.0,WeatherDisplay:10.37,2013-03-18 01:18:00,
2013-03-17 21:23:00,50.8,47.1,30.09,East,96,6.6,12.7,87,0.00,CLR,OVC,0.00,0.0,WeatherDisplay:10.37,2013-03-18 01:23:00,
2013-03-17 21:28:00,50.8,47.1,30.09,ENE,65,4.7,10.4,87,0.00,CLR,OVC,0.00,0.0,WeatherDisplay:10.37,2013-03-18 01:28:00,
2013-03-17 21:33:00,50.7,46.7,30.10,NE,49,8.3,12.7,86,0.00,CLR,OVC,0.00,0.0,WeatherDisplay:10.37,2013-03-18 01:33:00,
2013-03-17 21:38:00,50.6,46.9,30.10,ENE,59,11.0,18.4,87,0.00,CLR,OVC,0.00,0.0,WeatherDisplay:10.37,2013-03-18 01:38:00,
2013-03-17 21:43:00,50.6,46.9,30.11,ENE,59,4.7,9.2,87,0.00,CLR,OVC,0.00,0.0,WeatherDisplay:10.37,2013-03-18 01:43:00,
2013-03-17 21:48:00,50.6,46.9,30.11,ENE,74,7.7,10.4,87,0.00,CLR,OVC,0.00,0.0,WeatherDisplay:10.37,2013-03-18 01:48:00,
2013-03-17 21:53:00,50.6,46.9,30.11,ENE,61,5.0,10.4,87,0.00,CLR,OVC,0.00,0.0,WeatherDisplay:10.37,2013-03-18 01:53:00,
2013-03-17 21:58:00,50.5,46.8,30.11,ENE,57,8.3,13.8,87,0.00,CLR,OVC,0.00,0.0,WeatherDisplay:10.37,2013-03-18 01:58:00,
2013-03-17 22:03:00,50.4,46.7,30.11,NNW,346,2.4,10.4,87,0.00,CLR,OVC,0.00,0.0,WeatherDisplay:10.37,2013-03-18 02:03:00,
2013-03-17 22:08:00,50.4,46.7,30.11,NE,37,5.8,8.0,87,0.00,CLR,OVC,0.00,0.0,WeatherDisplay:10.37,2013-03-18 02:08:00,
2013-03-17 22:13:00,50.3,46.6,30.12,NE,37,4.8,11.5,87,0.00,CLR,OVC,0.00,0.0,WeatherDisplay:10.37,2013-03-18 02:13:00,
2013-03-17 22:18:00,50.3,46.6,30.12,ENE,61,7.7,15.0,87,0.00,CLR,OVC,0.00,0.0,WeatherDisplay:10.37,2013-03-18 02:18:00,
2013-03-17 22:23:00,50.2,46.5,30.12,NE,49,8.0,11.5,87,0.00,CLR,OVC,0.00,0.0,WeatherDisplay:10.37,2013-03-18 02:23:00,
2013-03-17 22:28:00,50.2,46.5,30.12,ESE,104,7.0,10.0,87,0.00,CLR,OVC,0.00,0.0,WeatherDisplay:10.37,2013-03-18 02:28:00,
2013-03-17 22:33:00,50.1,46.4,30.12,East,80,6.7,10.4,87,0.00,CLR,OVC,0.00,0.0,WeatherDisplay:10.37,2013-03-18 02:33:00,
2013-03-17 22:38:00,50.0,46.3,30.12,NE,55,7.0,11.5,87,0.00,CLR,OVC,0.00,0.0,WeatherDisplay:10.37,2013-03-18 02:38:00,
2013-03-17 22:43:00,50.1,46.4,30.13,NE,35,5.0,9.2,87,0.00,CLR,OVC,0.00,0.0,WeatherDisplay:10.37,2013-03-18 02:43:00,
2013-03-17 22:48:00,50.1,46.4,30.13,NE,55,8.0,11.5,87,0.00,CLR,OVC,0.00,0.0,WeatherDisplay:10.37,2013-03-18 02:48:00,
2013-03-17 22:53:00,50.0,46.3,30.13,ESE,104,7.6,11.5,87,0.00,CLR,OVC,0.00,0.0,WeatherDisplay:10.37,2013-03-18 02:53:00,
2013-03-17 22:58:00,50.0,46.3,30.12,NE,40,8.1,12.7,87,0.00,CLR,OVC,0.00,0.0,WeatherDisplay:10.37,2013-03-18 02:58:00,
2013-03-17 23:03:00,50.0,46.3,30.13,SE,132,5.9,8.1,87,0.00,CLR,OVC,0.00,0.0,WeatherDisplay:10.37,2013-03-18 03:03:00,
2013-03-17 23:08:00,49.9,46.2,30.13,SSE,152,1.3,8.1,87,0.00,CLR,OVC,0.00,0.0,WeatherDisplay:10.37,2013-03-18 03:08:00,
2013-03-17 23:13:00,49.9,46.2,30.13,NE,38,8.9,12.7,87,0.00,CLR,OVC,0.00,0.0,WeatherDisplay:10.37,2013-03-18 03:13:00,
2013-03-17 23:18:00,49.9,46.2,30.13,North,355,4.2,12.7,87,0.00,CLR,OVC,0.00,0.0,WeatherDisplay:10.37,2013-03-18 03:18:00,
2013-03-17 23:23:00,49.8,46.1,30.12,NNE,23,4.5,10.4,87,0.00,CLR,OVC,0.00,0.0,WeatherDisplay:10.37,2013-03-18 03:23:00,
2013-03-17 23:28:00,49.7,46.0,30.12,ENE,64,7.5,11.5,87,0.00,CLR,OVC,0.00,0.0,WeatherDisplay:10.37,2013-03-18 03:28:00,
2013-03-17 23:33:00,49.6,45.9,30.12,ENE,76,6.0,10.4,87,0.00,CLR,OVC,0.00,0.0,WeatherDisplay:10.37,2013-03-18 03:33:00,
2013-03-17 23:38:00,49.5,45.8,30.12,ENE,61,7.6,13.8,87,0.00,CLR,OVC,0.00,0.0,WeatherDisplay:10.37,2013-03-18 03:38:00,
2013-03-17 23:43:00,49.5,45.8,30.12,ENE,61,5.9,9.2,87,0.00,CLR,OVC,0.00,0.0,WeatherDisplay:10.37,2013-03-18 03:43:00,
2013-03-17 23:48:00,49.6,45.9,30.12,ENE,69,5.1,9.2,87,0.00,CLR,OVC,0.00,0.0,WeatherDisplay:10.37,2013-03-18 03:48:00,
2013-03-17 23:53:00,49.6,46.2,30.11,East,93,5.4,11.0,88,0.00,CLR,OVC,0.00,0.0,WeatherDisplay:10.37,2013-03-18 03:53:00,
2013-03-17 23:58:00,49.5,45.8,30.11,NE,43,8.5,15.0,87,0.00,CLR,OVC,0.00,0.0,WeatherDisplay:10.37,2013-03-18 03:58:00,